This is the latest recevied weather packets stored in our database for station/object SP1BMW-13. If no packets are shown the sender has not sent any weather packets the latest 10 day(s).
| Time | Temp. | Humidity | Pressure | Rain* | Wind** | Luminosity | Snow |
|---|---|---|---|---|---|---|---|
| 1787734513 | 22.78° C | 55% | 1022 hPa | 0 mm | 1.79 m/s, 9° | 485 W/m² | - |
| 1787734453 | 22.78° C | 55% | 1022 hPa | 0 mm | 1.34 m/s, 113° | 486 W/m² | - |
| 1787734393 | 22.22° C | 58% | 1021.9 hPa | 0 mm | 0.45 m/s, 100° | 484 W/m² | - |
| 1787734333 | 22.22° C | 57% | 1021.7 hPa | 0 mm | 0 m/s | 482 W/m² | - |
| 1787734273 | 22.22° C | 59% | 1022 hPa | 0 mm | 0.45 m/s, 39° | 480 W/m² | - |
| 1787734213 | 22.22° C | 58% | 1021.9 hPa | 0 mm | 0 m/s | 478 W/m² | - |
| 1787734153 | 22.22° C | 57% | 1021.8 hPa | 0 mm | 0.89 m/s, 48° | 478 W/m² | - |
| 1787734093 | 21.67° C | 56% | 1022 hPa | 0 mm | 0.45 m/s, 45° | 477 W/m² | - |
| 1787734033 | 21.67° C | 58% | 1022 hPa | 0 mm | 0 m/s | 475 W/m² | - |
| 1787733973 | 21.67° C | 57% | 1022.1 hPa | 0 mm | 0.89 m/s, 42° | 474 W/m² | - |
| 1787733913 | 21.67° C | 58% | 1022.1 hPa | 0 mm | 0.89 m/s, 76° | 472 W/m² | - |
| 1787733853 | 21.67° C | 57% | 1021.9 hPa | 0 mm | 0.89 m/s, 87° | 470 W/m² | - |
| 1787733793 | 21.67° C | 59% | 1021.8 hPa | 0 mm | 0.45 m/s, 56° | 469 W/m² | - |
| 1787733733 | 21.67° C | 58% | 1022 hPa | 0 mm | 1.34 m/s, 17° | 466 W/m² | - |
| 1787733673 | 21.67° C | 57% | 1022 hPa | 0 mm | 1.34 m/s, 67° | 463 W/m² | - |
| 1787733613 | 21.67° C | 57% | 1021.8 hPa | 0 mm | 0.89 m/s, 79° | 461 W/m² | - |
| 1787733553 | 21.11° C | 57% | 1021.9 hPa | 0 mm | 1.34 m/s, 100° | 458 W/m² | - |
| 1787733493 | 21.11° C | 59% | 1021.9 hPa | 0 mm | 1.79 m/s, 27° | 457 W/m² | - |
| 1787733433 | 21.11° C | 59% | 1021.7 hPa | 0 mm | 0.89 m/s, 51° | 456 W/m² | - |
| 1787733373 | 21.11° C | 59% | 1022 hPa | 0 mm | 1.79 m/s, 39° | 455 W/m² | - |
| 1787733313 | 21.11° C | 58% | 1021.9 hPa | 0 mm | 0.89 m/s, 46° | 454 W/m² | - |
| 1787733253 | 21.11° C | 57% | 1022 hPa | 0 mm | 1.34 m/s, 118° | 452 W/m² | - |
| 1787733193 | 21.67° C | 57% | 1021.9 hPa | 0 mm | 2.68 m/s, 32° | 450 W/m² | - |
| 1787733133 | 21.67° C | 56% | 1021.7 hPa | 0 mm | 2.68 m/s, 44° | 447 W/m² | - |
| 1787733073 | 21.11° C | 58% | 1022 hPa | 0 mm | 0.89 m/s, 36° | 444 W/m² | - |
* Rain latest hour (hover to see other rain measurements)
** Current wind speed in m/s (hover to see current wind gust speed)